Theta_e
332 327 318 313 314 312 313 307 296 297 295 292 293 293 293 295 299 299 300 310 311 318 323 325 323 326 321 321 322 322 322 321 322 315 315 330 344 346 347 348 350 351 351 353 356 357 356 354 354 355 355 356 356 355 355 355 355 354 353 353 353 353 353 353 353 352 352 352 351 350 349 348 348 348 347 348 348 348 348 347 346 345 346 347 347 346 346 345 344 344 345 345 345 344 345 345 346
319 317 313 314 315 311 306 303 298 296 295 292 294 293 296 298 299 300 299 307 313 320 327 328 328 328 328 328 328 327 324 329 328 326 331 340 344 346 349 351 351 350 352 354 356 358 356 356 354 355 356 356 356 355 355 355 355 354 354 353 353 352 352 352 353 353 353 352 351 350 349 349 348 349 348 349 350 349 349 347 346 345 345 346 346 346 345 344 343 344 345 345 344 344 344 344 343
313 314 311 313 311 310 307 304 293 292 291 289 293 296 298 299 298 301 301 316 323 326 326 324 325 324 324 326 322 323 321 333 333 336 335 342 337 342 349 351 351 350 352 354 355 355 357 355 351 354 356 356 356 356 356 355 355 355 355 354 354 353 352 352 352 352 353 353 351 350 349 349 349 349 349 350 350 350 350 348 345 345 345 346 346 345 344 344 343 343 343 344 343 343 343 342 343
315 316 310 312 306 307 302 299 296 293 290 291 295 300 300 305 308 313 312 320 323 322 318 322 322 323 323 321 324 329 327 329 335 336 334 337 340 347 349 350 352 350 352 352 353 354 356 354 351 355 355 355 355 356 356 355 355 355 355 355 354 353 352 352 352 352 351 352 351 352 352 349 349 349 351 351 352 350 349 349 347 345 344 345 345 345 344 344 343 344 343 343 342 342 342 343 343
310 313 312 310 307 302 301 296 294 293 290 293 296 305 305 311 314 314 311 322 321 316 319 320 321 325 328 325 325 323 325 334 336 339 339 343 348 349 349 349 349 349 349 351 352 353 355 353 351 349 354 355 355 355 355 355 355 355 355 355 354 353 352 352 352 352 351 352 352 352 352 351 350 350 350 350 350 351 351 350 349 348 347 345 345 346 344 344 344 343 343 342 343 343 343 343 343
309 311 311 310 305 306 301 295 294 293 295 297 301 304 308 314 316 318 318 316 318 319 319 319 320 320 324 328 330 326 333 327 337 339 342 343 348 349 348 349 347 346 349 350 351 353 354 354 351 350 350 349 352 352 354 355 356 355 355 355 354 353 353 353 353 352 350 351 351 351 351 350 350 350 349 349 349 351 349 349 350 349 345 344 344 344 343 343 343 342 342 342 343 343 343 342 343
309 309 309 307 304 305 297 295 294 295 297 297 300 307 307 313 316 313 312 313 316 320 324 321 326 325 322 327 331 335 339 338 338 340 344 346 348 348 348 346 345 345 347 349 351 352 355 353 353 350 348 346 348 349 353 353 354 355 355 355 354 354 354 354 354 352 351 351 351 350 350 350 350 350 349 348 349 350 350 348 348 347 346 345 344 344 343 343 342 342 342 343 343 343 343 344 343
309 307 305 302 297 300 295 295 295 296 296 297 300 300 302 307 312 312 311 312 313 314 321 322 321 322 320 328 323 335 341 344 344 347 347 347 347 346 346 346 344 344 346 349 351 352 354 351 352 351 349 343 344 343 347 351 353 354 355 355 355 355 354 354 354 352 351 351 350 350 350 350 350 350 349 348 348 350 350 348 347 347 347 345 344 344 343 342 342 342 344 344 343 343 343 343 342
308 308 302 301 296 296 294 294 294 296 298 298 300 302 306 305 306 309 309 310 313 317 320 321 319 317 319 326 325 334 339 345 347 348 347 346 345 345 344 344 342 342 345 348 351 351 353 352 352 352 350 345 343 344 345 348 350 352 354 354 354 353 353 354 354 353 352 351 351 350 350 351 350 350 349 348 348 349 349 348 349 347 345 345 344 343 343 342 343 343 344 344 343 343 342 342 341
305 304 301 299 297 293 293 293 293 296 297 301 300 301 303 305 304 305 304 304 311 318 320 322 323 320 324 322 327 333 337 345 346 345 345 345 345 344 344 344 344 343 344 346 348 351 352 353 351 351 351 350 344 342 343 346 348 352 353 354 353 353 353 353 353 353 352 352 352 351 350 350 350 350 349 348 347 346 348 347 348 347 346 346 345 343 343 343 343 343 343 343 343 342 342 341 340
302 302 302 297 294 292 291 292 294 296 298 301 301 303 303 304 303 303 303 303 314 314 319 324 321 323 324 322 328 337 343 344 343 340 343 344 344 343 344 345 344 344 343 345 349 350 352 352 353 351 350 350 348 343 344 338 342 351 351 351 352 354 354 353 352 351 352 352 352 352 351 350 350 350 347 346 345 345 348 347 348 346 347 346 345 345 344 344 343 342 342 343 342 343 342 341 340
300 299 299 295 293 293 292 293 295 298 299 298 299 302 303 302 302 300 301 301 310 317 318 322 318 327 322 323 327 337 342 342 342 342 343 345 344 344 344 343 345 345 345 347 348 349 350 351 351 352 351 350 349 348 343 341 342 348 350 351 351 352 350 351 352 351 351 351 350 350 349 350 349 349 346 346 347 348 349 347 347 347 346 346 345 345 344 344 343 342 343 344 344 343 342 341 339
301 297 297 295 293 294 294 293 295 297 298 299 300 302 303 302 301 302 303 303 309 314 316 323 327 327 318 322 331 337 337 340 343 343 344 344 344 344 344 344 343 345 346 347 347 347 349 350 349 349 351 351 350 349 348 346 348 348 349 350 351 351 351 351 349 351 351 350 349 349 349 349 350 349 348 349 349 347 348 348 347 347 346 345 344 344 345 345 345 345 345 345 344 342 342 340 339
302 299 298 293 293 294 294 294 294 294 296 300 300 300 300 301 302 303 303 301 309 311 321 328 327 328 324 326 328 331 337 342 343 344 344 344 344 343 343 342 343 344 345 346 346 346 347 347 348 349 350 351 351 351 350 349 350 349 348 348 347 347 348 348 348 347 347 347 348 348 347 347 349 349 350 349 349 348 348 348 347 347 347 346 346 345 344 346 346 345 344 344 343 342 341 340 339
301 298 300 295 293 293 294 293 295 294 296 299 301 298 299 302 302 301 303 302 310 320 326 332 329 322 316 322 323 330 337 341 344 344 344 343 342 343 341 342 343 343 344 344 345 345 344 345 347 348 349 349 350 351 351 352 348 349 349 348 346 346 346 346 345 345 346 346 346 346 345 346 348 349 349 349 349 348 348 348 348 348 347 347 346 347 343 345 346 344 343 343 342 340 339 339 339
302 299 297 294 291 291 293 293 294 293 297 298 299 298 302 302 306 303 304 309 315 323 327 322 326 316 324 326 328 334 339 343 344 344 343 341 342 341 341 341 341 342 343 343 343 344 343 343 345 346 347 348 349 350 351 352 350 348 347 347 346 346 345 345 344 344 345 346 346 346 346 348 348 350 348 347 348 348 347 345 344 348 348 347 347 346 345 344 345 344 343 341 341 341 340 339 340
300 301 295 293 291 291 293 294 294 294 298 299 300 299 300 305 309 313 317 321 319 321 318 321 322 321 326 329 335 339 341 344 344 343 341 340 340 338 339 339 340 340 341 341 342 342 342 341 342 343 345 347 348 349 350 351 351 350 349 347 346 344 345 343 344 343 343 346 346 345 345 349 353 354 350 341 349 347 346 347 347 348 348 348 347 346 346 343 343 344 343 342 341 340 340 339 340
301 297 294 292 293 292 296 295 297 297 296 300 300 298 300 304 312 315 320 318 319 318 321 325 329 330 332 336 340 341 342 341 342 339 338 336 338 334 335 337 338 337 338 339 340 339 340 340 341 341 342 345 347 348 349 350 351 350 352 351 350 348 346 345 346 349 347 351 347 347 350 351 350 350 350 344 345 346 346 347 347 346 347 347 347 347 347 346 342 343 343 341 341 342 341 339 340
298 293 294 292 293 296 299 298 298 297 298 300 300 299 298 305 312 311 313 313 316 316 320 326 326 330 335 337 338 339 340 339 339 338 337 335 336 334 334 335 336 336 336 338 338 339 341 341 341 340 341 342 345 346 348 350 349 349 350 351 350 347 348 347 346 348 348 349 350 349 350 349 347 348 348 346 347 344 349 346 347 344 345 345 345 346 346 346 343 342 342 342 340 338 339 338 339
297 297 293 294 297 297 296 298 299 299 300 299 299 299 301 307 306 310 313 312 315 315 318 323 324 324 329 333 336 337 339 338 338 337 336 335 335 335 333 333 334 336 335 336 337 339 340 341 339 341 342 342 342 344 346 346 347 349 348 350 351 351 350 349 349 348 348 349 347 349 348 348 348 349 345 343 343 347 346 339 338 343 344 342 341 346 346 345 344 342 341 341 339 336 338 336 334
296 296 294 295 296 295 299 298 299 300 298 298 298 298 300 302 305 313 312 311 311 315 321 321 323 325 329 333 334 337 336 336 336 337 336 335 335 335 335 334 334 335 336 337 338 337 339 340 339 339 341 343 343 343 342 342 344 347 348 350 349 348 349 350 349 348 347 349 349 348 346 348 347 348 348 347 346 345 345 346 344 341 340 339 343 341 342 339 342 342 340 340 340 338 336 337 336
297 296 297 298 295 295 300 300 299 298 297 297 297 298 300 304 310 313 313 310 310 315 319 318 328 329 330 332 333 336 334 334 335 334 333 333 333 333 334 335 336 337 337 335 336 338 339 338 339 340 340 340 343 344 343 343 343 341 344 347 348 349 348 347 346 347 347 348 348 346 346 347 346 344 345 346 344 343 340 341 343 342 340 340 342 340 338 340 340 339 341 338 338 338 338 338 337
294 296 295 296 298 296 299 299 298 296 298 298 297 299 300 304 309 312 313 311 307 305 308 319 330 332 334 335 334 333 332 332 333 333 332 332 332 332 332 333 333 332 335 335 337 338 339 339 338 340 340 341 340 341 343 344 343 343 342 343 345 348 349 347 346 348 348 347 347 346 344 344 343 341 341 342 342 340 338 334 338 339 341 340 343 338 338 340 340 341 340 337 336 337 337 337 336
296 295 295 299 297 296 299 298 298 297 296 298 299 298 298 304 306 309 309 305 303 308 313 327 331 332 334 332 333 332 332 331 331 333 333 332 332 331 332 331 332 334 334 336 336 337 340 339 340 340 341 341 342 342 343 342 343 342 343 345 345 347 348 347 346 346 347 346 345 347 348 345 341 339 339 340 341 340 336 338 340 340 341 339 342 339 338 339 340 340 339 336 336 336 336 336 335
295 294 296 297 295 298 299 298 296 295 297 299 297 298 298 300 303 307 310 307 305 314 324 329 331 331 331 331 331 331 330 330 329 330 331 332 332 331 331 331 332 332 333 335 336 336 338 340 340 339 341 340 342 342 341 342 342 342 343 343 344 344 345 346 345 345 345 345 345 347 348 345 342 340 340 339 341 340 339 339 342 343 341 341 342 340 339 339 339 338 338 336 337 336 336 336 334
295 297 296 297 298 299 298 297 297 297 297 297 298 298 297 298 298 307 304 306 311 321 326 329 330 329 329 330 330 329 329 328 329 327 327 328 330 328 327 328 330 333 335 336 335 337 338 338 339 339 341 341 341 342 342 341 341 342 342 343 345 349 344 344 344 344 344 344 344 345 346 348 344 342 340 340 340 340 340 339 341 345 344 344 342 340 339 339 337 336 336 334 332 334 333 335 334
297 297 297 298 299 296 296 295 297 295 297 297 298 298 297 298 298 302 303 308 315 321 324 328 329 328 329 329 329 330 329 328 328 328 325 325 327 328 326 326 330 333 334 334 335 337 337 336 339 339 340 342 341 340 342 340 341 341 342 342 344 346 343 340 345 344 343 342 342 343 343 343 343 341 339 340 340 339 340 339 338 343 343 343 343 342 345 338 337 334 334 334 334 333 333 334 333
296 297 296 297 295 294 295 296 297 297 298 296 299 297 297 298 299 299 300 308 313 318 321 324 327 327 327 327 327 326 326 326 325 323 322 322 324 327 324 325 330 332 332 334 335 336 335 337 338 339 339 341 342 340 341 339 340 340 340 342 342 343 342 341 341 342 342 342 340 340 341 341 341 340 340 341 342 340 339 337 337 339 339 344 342 344 344 344 338 335 337 339 337 335 334 334 335
297 295 295 297 296 297 296 296 297 296 297 296 298 298 297 298 298 298 302 308 311 317 319 322 323 322 323 323 322 322 323 322 320 322 324 325 326 327 324 328 331 331 333 336 335 333 335 338 339 337 338 340 340 339 338 338 340 339 339 340 341 341 340 339 338 337 339 337 339 339 339 339 339 338 338 339 340 339 338 333 334 338 339 345 342 342 345 344 343 340 339 339 337 336 335 335 334
295 296 293 295 295 295 297 296 297 297 297 295 297 292 296 297 298 298 301 308 311 314 316 318 319 318 319 320 319 319 320 319 318 321 324 325 325 325 326 326 331 333 332 333 332 332 334 336 337 335 336 337 337 336 337 336 337 337 338 339 339 340 339 338 337 335 337 339 340 340 340 339 339 340 339 339 338 337 338 335 334 335 340 341 343 342 343 343 342 340 336 336 335 335 335 337 336
296 293 295 292 292 292 297 295 296 298 296 296 300 293 295 298 298 299 302 308 311 312 313 315 315 315 316 317 317 317 317 319 318 320 322 322 323 323 327 325 327 332 331 330 331 333 332 333 332 333 335 336 335 334 333 333 334 334 336 338 338 338 339 338 337 336 335 337 340 342 342 339 339 339 338 338 338 337 336 337 337 338 337 337 340 341 342 341 341 340 340 335 338 336 342 337 339
293 292 291 291 292 293 296 296 296 297 298 298 299 294 295 297 296 296 300 307 309 310 311 312 313 313 315 316 316 316 315 316 315 316 318 319 320 321 324 323 326 329 330 329 330 330 330 332 334 334 334 333 331 330 330 330 330 333 334 334 335 336 335 336 338 339 339 338 340 341 339 339 339 338 338 338 338 337 336 336 336 335 334 331 336 341 339 337 338 338 338 339 337 337 335 335 337
293 294 291 290 292 292 293 296 296 296 296 298 297 293 295 296 296 297 298 306 307 309 309 311 311 311 314 315 315 315 313 312 313 314 316 318 318 320 322 323 324 327 329 327 329 329 330 332 333 333 332 330 328 326 326 326 328 329 331 330 332 334 334 335 334 335 336 338 338 338 339 339 337 336 337 336 336 335 335 335 336 334 335 332 332 332 338 337 338 337 337 338 338 337 335 332 333
292 293 293 289 291 293 293 298 297 300 297 297 296 295 296 296 297 296 298 303 307 307 308 309 310 311 313 315 315 314 313 313 313 314 316 317 316 318 321 322 324 325 326 327 329 330 330 331 332 333 330 328 327 326 326 326 327 328 329 329 331 332 333 332 333 334 335 336 336 336 339 340 339 339 338 338 337 337 335 334 333 334 333 333 332 332 334 335 335 335 337 336 336 335 333 332 331
290 293 292 292 290 290 292 292 295 299 296 296 294 294 296 295 297 297 299 298 305 308 308 308 309 309 311 313 314 314 313 312 314 316 316 316 316 316 317 321 321 322 323 325 327 329 329 330 330 330 328 325 323 324 325 326 327 328 327 329 330 331 331 331 333 333 334 337 335 335 336 337 336 336 336 337 337 335 334 334 334 333 334 333 331 331 331 332 332 333 335 335 334 334 333 332 332
292 294 293 292 292 292 293 295 295 297 296 294 294 295 296 296 297 298 298 300 303 306 307 307 307 307 309 311 312 313 313 312 314 315 316 315 315 316 317 319 320 321 322 323 325 326 328 328 329 329 326 323 323 324 325 325 326 326 324 326 327 328 329 329 331 331 334 334 335 335 334 334 333 334 335 336 336 334 333 332 333 333 335 335 332 331 331 332 331 330 329 332 331 332 334 333 333
292 291 292 292 293 294 294 293 295 296 294 294 297 297 294 297 297 299 299 299 300 304 305 306 306 307 307 309 311 312 313 313 312 314 315 314 315 315 317 318 318 319 320 322 323 324 326 325 327 326 323 322 322 322 323 323 323 322 325 326 325 327 327 329 328 330 331 331 329 327 327 326 328 330 330 333 334 332 333 334 335 334 334 333 332 332 332 332 333 331 330 330 329 328 330 333 333
295 293 292 292 291 293 295 295 296 298 295 294 294 294 297 298 299 300 301 298 299 302 304 305 306 307 308 308 310 312 314 312 311 313 314 314 313 315 316 317 318 317 318 320 322 323 324 325 326 325 321 322 323 325 324 325 326 324 324 323 325 325 326 325 326 327 329 327 327 326 327 324 323 328 331 331 331 330 330 330 333 332 333 333 333 332 332 332 332 331 330 328 330 329 329 334 333
293 294 293 292 293 292 295 294 296 296 295 296 295 296 298 300 299 300 301 302 303 303 304 306 306 307 307 307 309 311 312 312 312 314 315 314 315 315 315 317 318 319 319 319 322 322 322 323 325 323 321 322 322 324 324 322 323 324 326 324 325 322 320 323 325 326 327 324 325 325 326 327 326 327 330 329 329 330 330 330 331 331 332 332 331 331 331 330 332 331 330 328 326 329 329 332 331
294 292 292 292 292 292 291 297 296 297 297 296 296 294 298 299 300 299 300 301 303 304 300 301 305 307 307 308 309 310 311 312 312 313 313 314 314 315 315 316 317 318 318 318 319 320 321 322 323 322 321 322 323 324 323 325 324 324 324 324 323 324 321 323 324 324 324 323 321 324 325 326 326 327 327 325 328 329 330 329 329 329 329 331 330 328 328 327 329 329 329 328 329 323 326 328 333
294 295 293 293 292 294 294 294 296 296 296 296 295 295 296 297 297 298 299 299 299 301 300 301 301 301 307 309 309 312 312 313 313 313 314 314 313 314 314 316 317 317 317 318 318 319 319 322 322 321 321 322 323 324 324 325 324 323 322 322 323 321 321 322 321 321 323 323 321 321 322 324 324 325 327 328 326 327 328 329 328 329 328 329 328 326 325 324 326 328 329 331 328 330 326 331 332
294 296 297 296 297 295 293 295 295 294 293 295 292 288 288 294 296 296 298 299 300 299 299 301 302 301 301 303 306 310 312 314 314 314 313 314 315 315 315 315 315 316 317 318 319 319 320 321 320 320 320 321 323 325 324 324 323 322 321 318 316 316 317 318 317 318 320 321 318 322 321 323 324 326 327 327 326 326 327 328 329 327 327 326 326 325 325 324 324 324 326 328 328 330 330 329 329
291 294 297 297 296 297 296 294 295 289 287 293 293 287 285 295 294 297 296 296 299 302 302 300 299 301 300 302 305 307 309 311 313 314 314 314 314 314 314 314 315 316 317 319 318 319 320 321 319 320 320 321 324 324 324 324 324 324 323 321 319 317 317 320 322 323 324 321 322 322 322 325 325 326 326 326 326 326 327 326 326 325 324 324 324 324 322 323 321 321 324 324 325 327 329 327 326
291 296 294 294 295 295 296 295 294 292 293 295 293 292 287 287 293 295 293 295 297 299 300 301 299 299 300 302 303 305 307 310 312 312 313 314 315 315 314 315 316 317 319 318 317 318 319 320 320 320 320 321 323 324 324 325 324 324 324 323 320 318 320 320 320 321 323 322 321 321 322 323 325 325 325 324 325 324 325 324 323 323 320 319 318 318 319 320 321 321 323 324 324 324 324 324 323
294 294 294 294 295 298 296 294 293 291 291 288 291 291 287 287 293 295 296 294 296 297 298 299 300 300 300 300 300 301 303 306 310 311 313 314 314 315 316 315 316 318 317 317 317 318 320 320 319 320 319 321 322 324 324 324 325 325 324 323 321 319 319 318 318 320 321 322 321 321 322 322 323 325 324 324 324 323 322 321 321 319 318 317 316 316 317 318 320 320 320 320 321 321 322 322 321
294 293 292 291 292 293 295 293 292 290 288 285 289 291 286 287 292 294 294 294 295 296 297 298 299 299 300 300 301 301 301 301 304 309 313 314 315 316 317 318 316 317 318 319 318 318 318 319 318 319 319 320 322 323 324 324 325 324 324 323 323 321 319 318 319 320 321 321 320 321 322 322 322 323 323 323 322 321 320 320 319 319 319 317 315 315 316 316 317 317 318 318 319 318 320 320 319
294 293 294 292 292 292 291 291 290 289 283 286 290 287 288 283 290 291 292 293 292 294 297 299 300 299 299 300 299 299 299 299 300 302 309 314 316 317 316 315 316 317 318 317 317 317 317 318 318 318 319 320 321 323 323 323 324 324 324 324 324 323 321 319 318 319 319 319 320 319 320 321 322 322 322 323 322 320 321 320 320 319 319 317 315 314 314 313 314 315 315 315 316 316 315 317 316
294 294 293 292 290 292 290 289 291 282 281 287 285 287 289 282 287 292 294 295 295 295 295 296 297 297 298 299 299 299 299 299 299 300 303 311 313 315 315 315 315 315 316 316 317 317 316 317 318 318 319 320 320 322 323 323 322 323 325 325 324 324 323 319 319 320 319 320 320 319 320 321 321 322 323 321 321 321 320 320 320 319 317 317 315 315 314 313 313 313 313 313 313 314 314 314 314
293 293 293 288 285 284 281 285 280 282 281 286 286 287 286 286 291 294 294 295 296 297 296 296 296 296 297 298 298 299 300 299 299 300 302 308 312 313 313 314 315 315 315 316 317 317 316 315 316 317 318 320 320 321 322 323 322 322 322 323 324 324 323 321 320 321 322 321 320 320 319 319 320 320 321 321 321 321 318 319 319 317 316 317 316 314 314 313 313 312 312 312 312 312 312 312 310
293 293 290 287 282 278 273 280 280 282 286 286 286 288 284 290 291 294 294 295 296 296 297 297 296 296 297 297 298 298 299 300 301 302 303 308 312 313 314 315 314 315 315 316 317 317 316 316 316 317 318 320 321 320 321 322 321 322 323 322 323 322 322 322 321 321 322 322 321 320 320 319 320 321 321 322 321 320 318 319 319 318 317 317 316 315 314 313 313 311 311 311 311 311 312 311 310
293 292 293 290 288 282 275 280 277 280 283 285 287 285 284 285 290 294 295 296 296 296 296 296 297 296 297 297 298 299 299 301 302 303 305 309 312 314 314 315 314 314 315 316 317 317 317 316 315 316 317 319 319 320 320 321 321 322 322 322 322 322 322 321 321 321 322 321 321 321 322 322 321 323 322 323 322 321 320 320 319 318 317 317 316 315 314 314 313 311 311 312 311 311 311 311 310
290 290 292 290 287 291 284 284 285 284 283 282 284 284 288 289 293 295 297 296 295 295 295 295 296 296 297 298 298 298 299 299 301 304 305 307 311 313 314 314 314 314 314 315 316 317 318 317 316 316 317 318 319 320 320 320 321 321 321 321 321 322 321 321 320 320 320 322 322 321 321 322 323 323 324 323 322 321 319 319 319 318 317 317 316 314 313 312 313 311 311 311 311 312 311 311 310
291 289 289 290 294 292 282 281 281 280 282 281 285 286 289 293 293 295 295 294 293 294 294 295 295 296 298 297 298 299 299 300 301 301 304 308 311 313 314 315 315 315 314 315 316 317 317 317 316 315 315 317 318 318 319 318 320 319 320 320 321 321 321 320 320 321 321 321 321 321 321 322 324 323 322 323 322 321 320 319 318 317 317 316 315 314 313 313 312 311 311 310 310 311 310 310 309
290 287 291 291 293 295 289 282 280 281 279 280 283 283 285 286 284 293 293 292 292 293 293 294 296 296 296 296 297 298 299 301 301 301 302 305 308 310 313 315 315 315 315 315 315 316 318 318 317 317 316 315 316 316 317 318 319 319 319 319 320 321 320 321 321 320 321 319 319 319 320 319 320 321 322 322 322 320 320 319 318 317 317 316 315 314 313 312 313 311 311 310 310 311 309 309 309
293 292 295 290 285 284 288 284 275 276 275 279 282 282 284 287 288 290 290 291 292 292 294 294 294 294 294 295 296 298 300 302 302 301 301 303 305 307 310 312 313 316 316 316 316 316 317 317 317 317 317 317 317 318 319 319 319 319 319 319 319 319 320 320 320 320 320 319 319 318 318 319 321 320 320 320 320 319 319 318 318 317 316 315 315 314 313 312 312 311 311 309 310 309 308 308 308
293 293 292 290 293 290 285 285 287 285 277 274 279 282 282 289 290 292 292 293 293 293 293 293 294 294 294 295 296 297 299 300 301 302 302 303 304 306 307 309 310 312 313 315 316 316 316 317 317 317 319 319 320 319 319 319 318 318 319 319 319 318 319 319 320 319 318 317 318 319 318 318 319 319 321 321 320 318 318 317 317 316 315 314 313 313 312 312 312 311 310 309 308 308 306 306 306
290 291 289 290 290 289 289 289 286 285 279 278 278 277 284 291 293 294 293 293 294 294 293 294 294 294 294 295 296 297 299 300 301 302 302 303 304 304 305 307 307 308 310 312 314 315 316 317 317 317 318 318 319 320 319 319 319 319 319 319 320 319 319 319 319 318 318 318 319 319 318 319 319 318 320 319 319 319 317 317 316 315 314 313 312 312 312 312 311 309 309 308 307 306 305 305 305
292 291 289 290 287 286 282 281 285 285 284 277 277 278 287 292 293 296 294 295 295 294 294 295 293 293 295 296 297 297 298 300 301 301 302 302 303 304 304 304 304 305 306 307 309 311 313 315 315 316 316 317 318 319 319 319 319 320 320 319 320 320 319 319 319 319 317 317 318 317 319 318 317 319 319 319 319 319 318 317 316 315 313 312 311 310 311 311 309 308 308 308 307 306 305 304 305
Wind_Speed
3 1 1 1 1 2 2 2 4 2 1 3 3 2 2 2 3 4 4 3 4 1 0 2 8 12 6 5 7 6 4 12 4 7 1 4 4 9 8 12 13 12 12 11 11 12 14 13 13 14 13 13 12 13 13 14 15 15 16 16 16 16 15 16 15 15 14 14 13 14 13 13 13 12 11 11 11 11 10 12 12 12 12 12 11 11 10 10 10 10 11 11 12 12 12 12 11
1 1 1 2 1 1 2 2 2 1 1 1 4 1 0 1 2 5 1 1 2 4 3 7 7 9 8 13 10 10 6 6 3 3 2 4 9 8 8 11 13 13 11 11 10 11 11 12 13 14 14 14 12 13 14 15 15 15 15 16 16 16 16 15 15 14 14 13 13 14 14 13 12 11 11 10 9 9 8 9 10 11 12 13 12 11 10 10 10 11 11 11 11 11 12 11 11
0 1 2 1 1 2 4 1 3 1 2 3 1 3 2 4 5 4 2 1 7 8 6 8 9 7 5 7 7 4 4 1 3 4 5 9 11 7 9 10 12 13 12 9 8 9 8 10 10 14 15 13 12 12 13 13 14 15 15 15 15 15 16 15 14 13 12 12 12 12 12 12 11 11 11 10 9 8 8 8 9 10 10 12 13 12 11 10 10 10 11 11 10 11 11 11 11
0 1 2 2 2 2 2 1 1 3 2 1 2 2 3 3 5 5 2 4 7 2 2 5 4 3 3 8 4 5 5 4 2 7 6 8 7 10 10 11 12 11 10 8 8 7 8 11 9 12 15 14 13 13 12 13 14 15 15 14 14 16 15 15 14 13 12 12 12 11 10 10 10 10 9 8 6 6 7 8 9 10 10 11 12 12 12 11 11 10 10 10 10 11 11 11 11
1 1 1 1 2 2 2 2 1 1 4 3 1 1 3 3 3 2 5 5 0 2 1 2 4 4 5 6 1 1 3 5 7 6 7 6 9 9 11 11 11 11 10 10 8 7 8 12 13 8 12 14 13 13 13 13 14 15 15 14 14 15 15 15 14 13 12 11 11 11 11 10 10 10 9 7 5 5 6 7 7 8 8 10 10 10 11 11 11 11 10 10 11 10 11 11 11
1 1 0 2 1 2 3 3 2 3 1 2 1 1 1 1 4 7 6 2 2 2 3 2 1 6 3 4 2 3 7 4 7 7 8 9 11 12 12 10 10 11 10 9 8 6 8 10 8 8 12 12 12 11 11 13 13 14 14 14 14 14 15 14 14 13 13 12 12 11 11 10 10 10 8 7 6 7 8 7 7 8 9 12 11 11 12 11 11 11 11 11 11 11 11 12 11
1 2 2 2 3 1 1 1 2 2 1 3 1 2 1 2 5 2 3 3 3 4 4 3 5 8 6 4 6 5 2 2 8 8 6 11 12 12 11 11 11 11 10 8 8 8 9 7 9 11 12 8 9 7 9 11 12 13 14 13 13 14 14 14 14 14 13 12 12 12 11 10 10 9 9 7 5 7 8 9 9 10 10 10 12 12 12 12 12 12 12 13 12 11 12 11 10
1 2 1 2 2 1 1 1 1 2 1 5 2 4 2 1 2 1 2 1 2 1 4 6 5 1 5 2 2 3 4 1 7 9 13 11 12 12 11 11 12 11 10 9 9 8 11 8 7 9 15 13 8 3 6 8 13 12 12 13 13 13 14 13 13 13 13 12 11 11 11 11 10 9 9 8 6 6 7 8 9 9 9 10 11 12 13 13 13 13 13 14 14 12 11 10 9
1 1 1 2 2 2 2 0 1 1 7 4 7 8 5 6 4 2 2 1 2 2 5 2 4 3 4 5 5 2 4 7 10 12 13 13 12 12 9 10 12 11 11 10 9 9 8 8 7 10 15 17 10 7 3 9 10 11 12 12 12 12 12 13 13 13 12 12 11 11 11 9 10 9 9 8 7 5 8 7 6 8 9 10 11 12 13 13 13 14 14 14 14 13 11 9 9
2 2 2 1 2 4 1 2 2 2 4 5 5 6 4 5 5 4 5 4 1 4 5 4 5 6 6 7 6 4 5 9 12 11 12 12 13 11 11 11 12 13 11 10 9 9 8 11 9 10 13 19 18 9 8 5 7 11 11 11 11 11 11 12 12 12 12 11 10 10 11 10 10 9 10 9 7 4 7 8 5 7 9 10 10 12 13 14 14 13 13 14 14 13 11 9 8
1 2 2 3 1 3 4 1 2 2 6 6 8 9 10 5 5 6 5 5 2 3 6 3 6 7 5 4 3 1 5 10 12 12 12 12 12 12 11 11 11 11 12 11 10 9 10 9 13 12 11 13 18 14 9 1 1 8 10 10 10 10 10 10 12 12 11 10 10 10 10 10 11 11 10 9 8 7 7 8 5 5 6 9 10 12 14 14 14 13 13 13 13 11 10 9 9
2 1 1 1 3 2 1 1 1 4 6 4 6 1 4 8 5 4 7 9 5 4 7 8 5 7 7 4 3 3 9 10 11 11 12 12 11 11 11 9 10 10 12 12 10 9 10 9 8 11 12 12 11 14 17 13 9 7 10 10 10 10 10 10 10 11 11 10 10 9 10 11 11 12 14 13 11 9 8 8 7 6 4 6 9 10 12 15 14 12 11 11 12 11 10 10 9
1 1 3 1 1 1 3 2 2 4 4 4 6 3 4 7 7 8 8 12 9 9 6 6 12 4 5 3 3 5 9 10 11 12 12 11 11 10 10 10 10 11 11 12 11 10 9 8 7 7 9 12 11 10 11 13 11 10 9 9 9 9 10 10 7 8 8 8 8 8 7 9 11 12 11 10 9 9 8 8 8 7 4 1 5 8 10 13 15 13 10 10 11 11 11 10 9
2 2 3 2 1 2 2 1 1 4 2 2 2 1 3 2 6 9 5 8 10 12 4 12 11 8 7 6 4 7 9 12 13 12 10 12 10 10 11 10 10 10 10 10 10 10 9 8 8 8 8 6 8 9 10 10 8 9 8 9 10 9 8 10 9 8 8 8 8 8 7 7 6 10 11 11 9 8 7 7 8 8 7 5 2 6 9 11 12 13 11 10 9 9 11 11 9
1 1 2 2 2 1 1 3 2 2 1 1 1 4 4 5 3 3 9 10 9 5 7 5 5 10 6 11 8 11 11 14 13 12 12 11 11 10 10 9 10 10 9 9 9 9 9 9 8 7 7 6 6 5 6 9 10 9 9 10 9 10 9 10 9 9 9 9 7 6 7 7 6 6 9 10 9 8 7 8 8 8 8 6 4 3 7 10 10 12 13 11 10 9 8 9 9
3 3 2 1 1 1 2 4 2 1 3 1 1 4 6 1 3 4 6 4 6 3 11 7 3 1 5 11 5 15 15 14 13 13 12 12 11 10 9 9 8 9 8 8 8 7 7 8 7 6 6 6 6 5 6 7 9 10 10 11 11 10 10 10 8 7 9 10 9 8 8 7 6 7 10 9 9 7 7 8 8 9 8 7 5 3 4 9 10 11 12 12 11 9 7 5 5
2 0 2 2 3 3 2 3 4 2 4 4 2 5 6 3 2 1 2 8 14 9 2 3 5 2 7 5 12 15 15 12 13 14 12 10 9 8 7 7 8 8 6 7 6 6 6 7 6 5 6 6 6 5 5 6 8 11 10 12 11 10 9 8 7 5 6 10 9 8 8 6 5 5 6 6 8 7 7 5 8 9 9 7 7 5 3 8 10 11 11 11 11 10 8 6 5
1 1 2 2 1 4 3 5 5 3 5 9 10 4 6 3 3 4 7 8 11 8 6 3 6 5 6 9 16 16 15 16 15 15 13 12 10 9 7 8 7 7 7 6 5 6 5 5 6 6 5 6 6 5 4 5 6 7 8 8 8 8 8 10 5 4 5 6 8 6 5 6 5 5 3 2 5 6 6 5 8 8 8 8 7 5 4 4 9 9 10 10 11 9 9 5 4
2 2 1 4 4 3 2 1 3 4 8 10 9 5 5 3 5 4 4 11 13 11 5 5 8 9 10 14 17 17 15 16 16 14 14 14 11 11 8 7 7 7 5 5 5 4 3 4 4 6 6 6 7 6 4 5 5 5 7 6 6 6 6 6 6 5 5 6 6 5 5 6 5 5 4 2 2 5 2 3 5 9 7 7 7 7 5 3 7 11 11 11 10 7 5 4 3
1 2 2 4 4 4 4 4 8 5 9 11 9 6 3 2 2 3 6 9 11 14 12 8 10 12 14 16 17 16 15 16 14 14 14 13 11 10 10 9 8 7 6 5 5 3 3 3 4 4 6 6 6 5 4 4 4 5 5 5 5 5 6 5 5 5 5 5 6 5 4 4 3 3 6 7 3 1 2 2 3 5 6 7 7 6 6 4 5 12 8 12 8 3 3 3 4
2 2 4 2 2 3 3 5 7 8 4 5 5 6 2 2 3 4 11 10 5 5 8 15 16 16 17 18 17 16 15 15 14 14 14 14 12 10 9 9 8 8 6 6 4 5 4 4 4 3 3 4 5 5 5 4 3 3 3 4 4 3 4 5 5 6 5 5 5 5 4 4 4 3 3 3 2 1 1 2 3 6 6 6 7 5 5 5 5 6 7 4 4 4 3 2 3
4 4 2 4 2 5 9 7 5 4 2 4 3 7 1 2 2 8 13 11 9 8 11 5 11 19 20 21 18 16 15 16 15 16 15 15 15 12 10 8 8 8 7 6 6 6 5 4 4 4 4 4 3 3 3 4 4 3 3 3 3 3 4 4 5 5 6 6 6 5 4 4 4 3 3 3 3 3 2 4 5 6 6 5 6 4 5 5 4 4 5 5 3 3 3 2 2
5 2 4 5 4 7 4 3 2 2 5 7 7 2 2 2 4 8 9 0 4 2 3 4 10 15 20 18 19 18 17 18 18 16 15 15 14 13 11 9 8 8 7 6 6 5 5 4 5 5 5 4 4 4 4 3 3 3 3 3 4 4 4 4 5 5 5 6 6 5 5 4 4 3 3 4 5 5 5 5 8 8 6 6 5 5 5 4 4 3 5 5 4 3 2 2 2
3 3 1 6 6 7 7 9 4 4 1 8 2 2 5 3 6 5 5 2 3 5 4 10 12 13 16 19 18 22 20 18 16 14 14 14 15 13 12 10 8 7 6 6 6 6 5 5 5 5 5 5 4 5 4 4 3 3 4 4 3 3 3 4 4 4 4 6 6 4 3 4 4 4 4 4 4 5 7 7 9 9 7 6 5 4 4 3 3 3 3 5 5 4 3 2 2
3 3 2 5 2 6 7 5 5 4 8 9 1 3 3 4 3 8 8 1 3 3 8 15 14 15 12 15 17 14 14 14 14 12 9 8 10 10 9 8 9 8 7 7 6 6 5 3 4 4 4 5 4 4 4 3 3 3 3 3 3 4 3 2 3 5 5 5 5 4 2 4 5 5 4 5 4 5 5 7 8 8 7 6 6 5 4 3 3 3 3 4 3 3 3 3 2
5 6 2 3 7 7 5 7 6 6 3 1 3 3 3 1 1 3 3 4 1 6 9 15 16 16 14 14 12 14 14 14 13 11 10 8 9 11 10 8 8 8 7 7 6 5 4 4 4 4 4 3 4 4 3 3 3 4 4 4 3 4 4 3 3 4 4 3 4 4 3 2 2 3 4 4 4 5 5 6 6 6 6 6 6 5 4 4 3 3 3 3 3 3 3 3 2
4 5 6 8 8 5 3 1 3 2 2 2 1 3 2 2 3 2 4 3 4 8 10 12 16 16 15 13 12 12 15 15 14 12 9 8 10 10 10 8 9 8 6 7 7 5 4 4 4 4 3 3 2 2 2 3 3 3 3 3 3 3 4 2 2 2 4 4 3 3 2 1 1 3 5 5 5 6 6 5 7 5 5 6 6 4 3 4 3 4 4 3 3 3 2 2 2
3 5 5 7 5 2 4 5 2 1 2 3 0 2 3 3 0 2 2 1 2 10 9 10 11 13 13 13 13 10 9 9 9 11 14 14 11 10 11 9 9 8 8 9 6 4 5 6 5 4 3 3 2 2 2 2 2 2 2 1 1 2 2 2 2 2 2 1 2 3 2 1 2 3 5 5 6 5 6 3 5 5 6 5 6 4 4 3 4 3 3 2 1 1 1 1 1
1 1 6 6 4 2 5 4 3 4 2 1 2 2 2 2 1 3 3 1 4 8 9 9 10 10 10 10 9 9 9 9 8 10 12 9 8 8 11 9 10 9 6 7 6 6 7 6 5 4 4 4 3 2 2 1 2 1 2 2 2 3 3 2 1 1 2 1 1 2 3 3 3 3 4 7 4 4 4 4 6 5 5 5 5 6 5 4 3 3 3 2 2 2 1 1 1
1 2 2 5 4 2 7 2 2 1 1 2 2 3 1 2 3 4 3 3 7 9 9 8 7 7 8 9 9 8 7 8 10 10 9 8 9 8 10 9 8 8 7 5 6 7 4 3 3 3 3 5 3 2 2 2 2 2 2 3 3 2 3 3 2 2 2 2 0 2 3 3 3 4 5 5 5 4 4 5 5 4 4 5 4 5 3 3 3 3 4 3 3 2 1 1 1
2 2 1 2 2 2 7 4 8 4 1 3 2 3 3 3 1 4 3 3 9 9 9 9 8 7 8 8 9 10 10 10 9 7 7 7 7 6 8 7 8 7 5 6 9 7 6 4 3 3 3 4 3 3 3 3 3 4 4 4 4 3 2 2 3 2 1 3 1 1 3 3 2 3 4 4 4 3 2 4 5 4 2 4 3 4 3 1 1 1 1 3 2 2 2 1 0
2 1 1 0 2 2 5 3 7 5 2 4 1 2 3 4 6 5 2 2 5 8 9 10 10 9 9 9 10 10 9 7 4 7 6 8 7 8 9 10 9 8 9 8 6 7 7 6 5 5 4 4 3 3 3 3 3 4 4 4 3 3 3 3 3 4 3 2 1 2 4 3 1 1 2 3 3 3 2 2 3 1 6 5 3 3 3 4 3 3 2 2 1 0 1 2 1
3 2 0 1 1 2 2 5 3 3 3 4 3 3 3 1 5 3 3 3 4 6 8 9 9 9 9 10 9 8 7 7 7 9 9 8 7 7 8 9 10 9 7 9 9 8 8 8 6 6 5 5 4 3 3 3 3 4 5 4 3 3 4 4 3 3 3 3 4 4 4 4 3 2 1 0 1 2 0 1 2 3 3 3 3 4 1 4 5 3 2 1 2 2 2 4 4
2 2 2 1 1 3 2 5 5 7 6 1 5 2 4 2 5 2 2 1 5 7 9 9 9 9 10 9 9 9 8 8 11 12 12 9 7 8 6 6 6 5 5 7 8 9 10 9 7 6 5 4 3 3 3 3 4 4 4 4 4 4 4 3 3 3 4 4 5 5 5 5 4 4 3 2 1 2 2 1 4 3 3 1 3 4 3 3 2 2 1 0 1 2 2 2 2
1 3 2 2 1 2 3 2 5 7 5 1 1 1 8 4 5 1 3 2 4 5 6 8 8 8 8 9 9 10 9 10 12 7 4 6 6 6 5 6 6 5 5 7 7 6 7 7 6 6 6 4 3 3 4 4 5 5 5 5 5 5 4 3 3 5 4 4 5 5 5 5 5 5 5 4 4 4 4 5 5 6 6 5 7 4 1 1 3 6 7 4 3 3 3 3 2
1 3 2 2 0 2 1 0 2 5 2 2 0 1 4 4 5 3 2 3 5 5 3 3 5 5 6 8 8 8 9 11 2 2 3 5 5 5 4 4 4 4 5 6 7 7 7 7 6 6 6 5 3 3 4 4 4 4 5 4 5 3 4 4 4 4 4 4 4 4 4 4 5 4 4 4 4 4 4 5 6 6 5 5 4 5 5 4 5 8 8 6 5 3 5 4 3
4 2 3 2 1 2 3 3 1 2 1 2 1 2 3 5 5 4 1 2 4 6 7 6 7 7 8 9 10 10 10 9 2 2 4 6 7 5 4 4 5 5 6 7 8 8 9 9 8 8 6 6 5 5 4 5 5 4 3 3 4 3 4 4 4 3 4 4 4 5 5 5 5 6 5 4 5 4 4 4 5 4 2 3 4 4 4 4 4 4 5 4 5 6 5 3 3
2 3 3 2 2 1 2 2 3 2 2 1 1 2 3 3 3 3 2 1 6 8 6 7 9 9 8 11 12 13 10 2 4 4 5 7 7 7 6 5 7 9 8 8 9 9 8 8 9 8 6 7 6 5 4 3 3 3 4 4 4 3 4 4 4 4 3 3 4 4 4 4 5 5 5 6 5 6 5 4 5 4 2 3 4 4 4 4 5 4 3 2 3 4 5 3 4
2 3 2 2 3 4 6 2 1 2 2 0 2 3 3 2 4 3 3 3 2 4 7 10 11 10 10 11 11 10 6 8 7 7 5 7 8 8 7 6 7 7 8 9 7 7 8 8 7 8 7 7 6 5 4 3 2 2 3 4 3 3 2 2 2 3 3 4 3 4 3 3 4 5 5 6 5 5 5 5 4 5 4 3 4 5 5 5 3 2 2 1 1 1 3 4 5
3 2 3 4 2 1 1 3 1 4 3 2 1 3 4 3 3 2 3 3 4 1 2 4 6 10 12 14 13 11 12 9 11 11 9 7 9 8 7 8 8 7 7 8 8 9 7 7 8 8 8 6 6 5 4 4 5 5 6 5 3 2 3 2 3 2 3 4 5 4 4 4 5 5 6 6 6 5 5 5 5 5 5 4 5 6 6 6 4 3 4 3 2 2 4 4 5
0 3 2 1 2 2 2 2 4 1 2 1 3 4 3 3 2 3 1 3 4 3 4 2 4 7 5 4 6 8 12 12 11 9 8 9 11 13 12 9 8 9 9 10 9 9 7 10 9 9 8 7 6 7 7 7 6 6 6 5 5 5 4 3 3 3 2 3 4 4 4 3 4 4 5 6 7 5 5 5 5 5 5 5 5 6 6 6 5 4 3 3 5 3 5 2 3
2 6 8 6 4 4 3 2 2 1 1 6 5 4 1 1 3 2 2 3 1 2 2 4 3 3 4 8 11 9 10 9 11 14 14 13 12 8 8 10 11 10 10 10 8 9 9 8 8 8 7 6 7 8 8 7 7 7 6 5 4 3 3 3 4 4 4 3 4 3 4 3 4 4 4 6 6 6 6 5 5 6 6 6 6 6 6 6 7 6 5 3 3 2 1 2 2
2 3 8 5 5 3 4 3 0 2 3 3 2 3 2 1 2 2 3 4 6 1 2 4 1 2 5 8 8 8 11 11 11 10 10 12 12 12 12 13 14 13 12 9 8 9 10 9 10 10 9 7 7 8 9 7 7 6 7 7 6 6 5 3 1 1 3 3 3 4 4 4 4 6 5 5 6 6 6 6 6 7 7 6 6 6 7 7 7 7 5 5 5 5 2 3 3
4 1 7 7 6 5 4 2 1 1 0 1 2 2 3 3 4 2 2 5 3 3 5 5 1 1 4 6 7 9 10 11 10 13 14 15 14 16 17 16 14 13 10 10 9 9 11 10 10 10 8 7 7 7 8 8 8 7 7 6 4 4 4 3 3 3 2 3 4 4 4 4 5 5 6 6 6 6 6 7 7 7 8 7 7 7 7 6 6 7 7 7 6 7 7 6 6
1 2 2 6 4 3 5 2 3 1 2 4 2 1 2 2 3 1 4 1 4 4 8 9 8 5 5 7 8 10 11 12 13 13 14 14 15 16 14 14 13 11 11 12 11 10 8 9 10 9 9 8 7 8 8 8 7 7 7 6 5 3 2 2 2 3 4 3 5 3 4 5 5 4 5 6 6 7 6 7 8 8 8 8 7 7 7 8 9 8 8 8 8 7 7 6 6
1 6 7 6 7 6 2 2 3 1 2 5 2 1 4 4 2 2 2 1 4 5 10 9 9 11 10 8 7 8 11 13 12 15 14 13 14 12 9 7 9 9 8 8 7 8 8 8 9 10 10 8 7 9 8 9 8 7 6 6 7 5 4 3 2 4 5 4 6 5 4 4 4 5 5 6 7 7 7 8 8 9 9 8 8 9 9 10 9 9 9 8 8 8 7 7 7
7 4 7 5 5 3 2 4 1 2 2 6 1 1 2 7 0 1 2 2 4 7 7 6 9 11 12 12 11 9 10 10 10 11 12 10 4 4 7 10 11 8 8 9 9 9 8 9 10 12 11 8 8 9 9 10 8 8 7 8 8 7 6 4 4 4 4 4 5 5 5 4 4 5 5 5 6 7 7 7 7 8 8 8 8 9 9 9 8 8 8 10 10 9 7 7 8
5 2 3 4 3 1 3 2 2 2 3 1 3 1 3 6 2 2 1 5 5 6 7 10 11 11 12 12 12 12 11 10 9 8 9 8 8 9 10 10 12 11 10 10 9 9 9 8 9 11 11 10 9 9 9 8 8 8 7 8 8 7 7 5 6 6 6 7 6 6 4 4 4 4 5 6 6 6 6 6 7 8 8 8 8 8 8 8 8 8 8 7 8 8 8 8 8
3 3 3 3 1 1 1 2 3 4 4 3 3 1 2 8 3 3 3 3 4 3 5 8 10 12 12 12 13 11 10 8 6 6 6 8 10 11 13 13 11 12 13 14 13 10 8 8 11 13 13 12 11 10 10 9 8 8 8 8 7 6 7 7 7 5 6 6 5 6 6 6 5 5 6 6 7 7 7 7 7 7 7 7 8 9 8 9 8 8 8 9 8 8 8 8 8
5 5 3 5 3 1 2 1 1 3 3 1 1 1 4 2 3 0 2 3 4 5 6 7 8 10 11 11 10 10 10 9 5 1 3 6 8 9 9 10 10 8 9 10 10 10 11 10 12 13 13 12 10 10 10 10 9 9 8 8 7 6 7 7 6 6 6 5 5 6 7 7 7 7 7 7 7 7 6 6 7 8 8 8 9 9 8 8 8 8 8 8 8 7 7 8 8
4 2 6 5 5 4 2 4 4 5 2 2 0 2 2 3 3 1 3 3 5 5 5 5 6 6 6 7 7 9 10 9 6 3 4 2 3 6 8 7 6 6 8 9 8 9 8 7 8 11 11 11 12 12 10 10 8 8 8 7 6 6 6 6 6 5 5 6 5 6 5 5 6 6 7 6 7 7 7 7 7 8 8 8 8 8 7 7 7 7 7 7 6 6 7 6 6
2 1 3 4 5 4 8 1 3 2 2 1 2 2 0 1 3 4 1 2 2 4 4 4 5 5 5 4 9 11 11 10 9 7 4 4 3 5 5 6 7 7 7 6 8 8 7 6 6 6 7 6 6 5 5 5 6 6 7 8 8 7 5 5 5 4 4 5 6 6 6 6 5 5 4 6 6 7 7 8 8 8 8 8 8 8 7 7 7 7 6 6 6 4 6 6 5
4 3 5 1 4 6 5 2 3 1 1 3 2 2 2 2 2 3 1 1 2 3 3 5 8 9 8 10 10 11 11 11 11 10 7 5 4 4 5 6 6 7 7 8 8 7 6 6 7 7 8 6 5 6 6 5 6 6 6 6 6 7 7 8 7 7 7 5 5 5 5 5 5 4 5 5 7 6 7 8 8 8 7 8 8 7 7 7 7 7 6 6 6 5 5 5 4
7 4 5 5 1 3 2 3 1 0 4 2 1 2 3 4 2 6 4 2 1 2 5 5 7 9 10 9 9 10 10 10 10 11 10 8 7 7 5 4 7 8 9 9 10 8 7 6 6 7 8 9 6 5 7 11 11 9 7 7 7 7 7 8 8 7 6 5 5 4 3 3 5 5 5 4 6 7 6 8 8 7 7 7 8 7 7 7 7 6 6 6 5 5 5 4 4
3 2 4 4 2 4 1 2 1 2 2 2 2 1 3 6 3 6 8 6 3 2 4 5 8 9 9 9 10 10 11 9 10 11 11 10 8 8 7 7 5 2 6 9 10 9 8 9 8 8 8 8 7 6 7 6 7 7 7 9 11 10 8 7 6 6 5 6 7 6 6 5 4 5 5 5 6 7 7 7 7 8 7 7 7 6 6 5 6 6 5 5 4 4 4 4 3
4 4 5 2 2 2 5 3 1 2 3 1 2 3 4 7 3 10 9 8 4 2 2 4 4 6 5 6 7 8 9 9 9 10 12 11 11 10 10 10 9 6 5 3 3 4 7 7 7 8 7 8 8 9 8 8 8 8 8 8 9 9 9 9 8 7 7 8 8 7 7 6 6 6 6 7 6 7 8 8 7 8 8 7 7 6 6 6 5 5 5 4 4 3 4 4 3
4 4 1 2 2 2 2 2 2 4 2 3 1 3 4 3 4 9 10 8 6 4 4 3 3 3 3 4 5 6 7 7 8 9 10 11 11 11 11 10 10 9 8 7 5 3 1 1 4 6 8 9 9 8 8 8 6 8 8 9 8 8 10 8 8 8 8 8 8 7 7 7 6 6 7 7 7 8 9 9 9 8 9 8 7 7 6 6 5 6 5 5 4 3 3 3 3
1 3 5 5 7 5 5 5 3 1 4 3 4 5 2 1 1 3 7 5 5 3 2 3 3 3 2 3 4 5 5 7 8 8 9 8 8 8 9 9 9 10 10 10 8 8 7 5 3 2 3 6 8 8 8 8 8 8 10 10 9 7 7 8 10 9 10 9 9 8 8 7 8 7 7 8 8 7 8 9 9 9 9 8 8 8 7 6 6 6 6 4 3 3 3 3 2
Wind_Direction
226 290 319 278 196 223 205 29 231 105 233 239 310 202 51 278 306 282 187 126 197 94 286 155 149 146 169 190 152 86 17 167 152 165 195 48 138 125 123 124 122 120 126 136 137 143 145 149 146 137 135 135 137 135 133 132 131 126 124 124 123 122 122 121 122 124 127 127 127 128 129 127 128 129 127 123 123 124 126 129 131 128 125 122 122 125 130 135 140 133 137 135 135 133 132 131 127
226 32 23 218 188 222 157 291 76 180 47 256 223 71 267 317 258 235 176 188 35 127 150 115 102 79 69 102 115 111 63 18 343 10 88 132 128 116 122 122 122 121 128 134 140 139 145 146 145 140 138 139 138 137 136 134 132 128 124 125 126 127 126 125 126 127 127 128 130 133 132 132 133 130 127 124 120 124 127 133 132 128 126 126 126 128 133 139 137 138 138 138 136 138 133 131 131
126 239 109 176 120 8 113 280 235 56 200 238 227 214 45 261 246 277 273 349 119 127 127 104 99 77 107 122 132 237 130 22 117 104 96 143 140 125 126 116 111 116 124 127 132 138 140 141 155 142 139 138 139 138 136 134 132 129 126 126 129 129 128 127 126 125 124 124 128 130 134 134 134 132 128 128 127 129 133 132 132 129 127 128 129 130 133 135 136 137 139 139 140 139 136 133 132
161 352 215 182 125 268 122 93 92 163 198 269 308 139 261 291 283 301 256 148 118 147 178 139 130 343 197 161 104 88 100 156 170 142 128 160 142 126 124 113 113 116 118 124 133 135 136 146 156 145 141 140 139 139 135 135 133 130 130 130 131 133 131 130 129 127 126 120 120 112 109 130 131 122 110 108 107 134 136 134 135 136 129 127 130 131 133 133 131 132 132 137 139 136 133 131 133
240 127 276 213 200 120 156 61 101 185 225 174 12 341 275 273 333 73 130 153 133 307 165 97 111 35 41 79 95 240 131 107 133 149 135 128 133 124 124 116 112 115 116 124 126 134 139 142 155 164 139 142 136 136 136 135 134 133 132 131 133 134 134 132 132 131 130 124 117 113 113 118 124 118 111 107 102 123 133 129 131 132 128 126 129 132 131 130 132 134 137 138 131 134 131 132 130
89 222 26 256 287 45 107 164 146 195 16 136 252 59 296 314 104 106 126 178 89 68 45 97 101 167 132 33 16 120 126 153 147 136 140 133 130 129 123 117 111 111 113 118 126 135 145 129 148 146 132 148 125 135 134 139 135 131 131 131 132 134 134 135 134 136 137 135 133 127 125 125 124 122 121 113 120 121 122 114 125 123 125 127 133 135 132 131 133 136 139 135 132 130 129 130 120
201 171 37 105 106 290 211 178 148 212 121 197 297 161 56 122 129 157 79 165 69 82 24 95 115 121 108 115 99 72 331 118 165 137 138 129 127 128 121 112 109 113 117 117 126 131 135 121 130 140 132 100 102 124 138 137 133 130 130 130 132 134 137 137 136 136 140 143 142 138 135 133 133 131 131 130 129 121 123 139 139 138 132 130 134 138 137 135 138 138 136 135 128 127 123 119 117
67 252 20 201 90 266 138 89 193 226 127 209 313 273 225 44 219 285 42 19 109 303 74 87 29 342 77 302 146 47 67 105 112 126 119 126 126 121 117 114 111 116 116 122 124 123 120 98 109 128 128 139 120 168 142 140 136 133 131 134 137 139 139 139 136 135 139 145 146 145 142 143 142 138 136 137 130 122 119 137 143 135 135 134 133 138 139 140 141 138 136 131 129 131 131 121 101
354 75 224 159 168 64 118 172 14 252 291 201 251 241 278 291 315 305 265 15 163 135 141 55 8 219 130 88 83 74 71 114 121 123 123 121 125 126 123 113 114 121 122 121 118 118 123 116 107 117 130 134 136 172 146 154 141 137 135 136 138 140 141 138 137 136 139 145 147 147 148 146 142 139 139 141 135 130 130 132 140 139 139 137 135 138 141 142 142 138 137 135 137 138 130 110 96
101 288 145 96 62 211 12 138 227 169 251 277 264 257 216 219 241 262 279 269 260 132 120 88 29 77 109 93 118 105 115 127 125 124 124 125 127 126 119 110 117 125 123 121 120 121 124 121 98 97 118 133 148 176 188 164 136 134 139 138 139 141 140 137 135 135 138 144 145 143 147 150 150 148 144 139 125 126 141 134 150 141 140 139 138 136 137 137 136 142 145 142 139 136 128 122 112
140 45 14 186 178 228 221 151 238 232 243 282 285 233 230 207 233 248 249 279 107 214 141 147 90 101 103 83 67 309 142 129 130 126 128 126 126 117 108 113 121 125 126 122 121 125 125 121 102 91 101 121 138 163 145 137 148 139 129 133 137 137 132 132 136 137 137 140 138 134 138 145 151 150 123 129 143 165 148 143 148 151 137 142 140 139 135 136 143 147 149 141 134 128 125 121 112
149 326 197 164 220 230 107 217 226 254 265 302 275 274 161 189 194 215 222 230 199 206 187 176 153 143 89 111 111 145 139 143 129 126 128 127 114 107 112 116 118 118 119 120 119 119 121 122 121 104 101 113 129 146 149 165 184 149 130 134 135 129 127 135 138 139 141 139 138 134 136 145 147 145 146 161 158 150 129 140 145 142 140 143 141 140 139 138 141 143 141 133 128 126 125 122 115
60 177 112 165 89 204 119 258 276 299 300 232 249 94 134 152 187 224 211 213 190 187 198 176 126 162 124 129 119 153 157 144 137 135 134 128 119 112 109 112 118 118 119 119 117 115 114 115 113 119 109 112 121 131 141 157 158 146 138 130 124 125 129 124 122 122 124 114 108 111 116 122 134 138 138 138 141 143 141 139 142 134 135 164 142 137 139 136 134 132 126 128 130 132 129 125 120
168 210 153 202 31 120 181 333 273 269 233 295 251 109 190 249 224 241 174 198 188 193 128 143 141 120 92 127 171 170 167 151 142 142 136 127 123 115 112 120 121 123 124 123 120 117 114 108 109 112 118 120 125 127 127 138 146 140 136 127 113 95 97 111 120 102 104 93 107 116 102 103 120 131 136 136 139 143 142 143 146 147 153 165 190 147 144 136 133 130 127 126 127 130 133 131 127
98 196 86 94 123 216 167 234 231 163 303 221 37 338 310 247 282 189 197 194 183 50 122 120 141 168 181 176 177 181 163 158 147 143 136 128 127 123 120 125 125 124 127 128 126 123 116 111 107 112 113 120 120 129 136 131 142 141 131 135 127 110 109 109 119 116 112 105 113 125 136 126 135 140 131 135 142 144 148 156 148 150 154 164 194 183 150 138 136 133 131 129 125 125 130 132 132
120 136 50 199 129 249 170 226 132 279 252 211 69 302 301 172 226 204 223 220 116 165 156 157 267 310 135 188 145 161 154 153 144 140 137 134 131 127 130 130 129 131 129 130 127 120 120 121 117 117 117 120 125 128 132 133 134 149 140 127 132 115 113 122 119 132 133 142 150 152 153 148 149 149 141 143 148 147 150 146 170 151 159 167 180 212 150 146 145 139 134 130 126 123 118 115 121
136 309 160 66 208 212 176 220 169 221 323 280 199 3 334 332 63 301 303 147 135 150 53 74 173 8 174 148 143 145 147 145 139 140 140 139 135 134 137 141 138 139 138 133 131 126 119 124 124 119 121 127 124 134 131 129 132 143 138 128 131 135 118 122 137 144 152 162 161 163 141 146 160 143 154 159 148 166 158 152 162 161 159 166 176 199 193 146 152 147 137 135 133 127 117 103 85
199 126 111 196 127 211 194 219 198 43 296 317 310 25 292 282 104 89 121 105 116 120 95 62 67 56 122 120 141 145 143 141 147 148 150 146 147 143 143 146 143 140 144 136 130 136 130 131 128 124 121 129 131 118 125 120 123 130 130 139 141 146 139 137 151 153 165 155 163 169 159 150 158 154 138 178 164 172 171 165 171 163 164 169 178 184 199 154 147 135 139 134 130 122 126 129 110
135 115 205 240 180 248 188 192 233 275 306 307 304 310 264 224 154 155 158 139 140 131 97 95 90 110 116 136 143 147 146 137 144 152 146 143 155 150 141 139 142 137 141 138 134 141 130 124 129 128 127 128 130 133 128 114 116 126 130 134 134 142 145 143 159 155 166 157 165 165 162 157 159 156 143 123 132 34 357 168 179 164 175 182 185 184 174 184 131 151 144 127 112 114 138 130 124
97 211 208 242 205 265 228 216 266 227 282 292 311 336 288 136 227 141 167 153 159 158 145 133 136 143 149 147 149 149 146 138 143 144 150 156 158 153 150 147 153 153 148 145 141 137 129 118 113 117 133 140 139 131 107 105 123 134 141 133 136 149 147 146 149 163 163 153 159 164 165 148 136 139 116 94 82 58 45 68 345 208 194 197 192 186 173 176 140 134 139 123 123 129 127 139 136
130 211 228 259 172 260 252 190 240 261 221 268 302 301 214 215 216 165 142 141 206 199 189 162 164 158 154 156 152 151 145 141 146 152 162 163 162 162 158 160 157 154 152 148 152 159 152 132 136 137 134 131 132 133 132 132 125 131 129 129 147 156 161 150 148 158 161 165 161 169 156 142 158 152 140 153 159 120 14 291 230 206 209 207 182 198 195 174 200 144 127 122 125 127 135 130 143
141 235 237 229 143 260 264 261 246 250 207 258 285 317 340 17 167 157 163 178 187 187 197 341 156 153 155 159 155 153 148 151 156 165 166 165 165 162 158 150 145 148 150 159 169 168 169 155 149 144 154 138 119 114 128 132 136 146 145 138 153 158 158 161 163 163 171 181 177 170 151 138 149 167 180 182 165 139 223 295 261 224 209 205 187 196 196 193 188 169 140 138 140 126 137 144 142
236 175 248 236 238 267 302 264 213 145 295 291 302 329 273 254 150 180 184 187 29 13 327 138 163 163 159 154 153 156 159 163 167 167 168 168 166 161 159 155 152 156 161 163 170 177 176 168 159 158 151 144 147 148 142 148 133 128 151 162 166 159 163 167 172 175 182 185 189 178 166 146 129 168 204 202 182 153 161 227 236 233 204 202 190 200 196 194 194 163 135 138 140 146 141 144 150
229 262 16 278 172 229 247 260 262 282 272 273 112 36 268 238 171 179 186 151 314 318 174 132 148 158 158 157 163 163 165 165 165 166 171 171 167 166 162 157 159 160 164 163 174 180 184 177 161 165 155 151 149 152 141 146 142 147 154 169 162 164 164 163 171 185 178 196 198 193 170 144 148 162 205 223 206 175 196 200 223 214 199 199 189 209 194 199 185 155 131 127 144 151 155 159 149
196 255 216 263 184 233 252 260 291 272 256 264 294 260 284 173 303 145 201 300 345 121 145 132 144 155 161 160 158 154 154 157 161 164 159 164 166 154 153 159 163 165 170 176 178 190 191 165 164 167 155 158 151 151 143 141 147 156 156 157 172 157 152 135 181 181 189 189 199 202 196 176 167 177 205 222 203 199 214 215 218 214 197 193 186 198 196 190 192 169 149 136 136 144 155 154 158
197 237 186 254 260 262 282 295 279 264 266 191 221 46 36 310 35 176 54 14 64 128 132 136 144 157 165 168 161 155 158 161 162 160 165 160 159 156 167 169 166 175 179 177 179 193 180 165 180 170 163 144 146 162 148 146 148 155 164 172 155 138 128 124 157 193 196 186 187 206 220 213 186 205 213 212 208 217 214 230 239 232 209 185 196 193 190 186 188 175 160 140 143 155 166 151 165
177 235 232 265 279 323 350 255 297 319 299 344 226 82 7 28 247 140 64 46 130 127 135 145 149 160 167 168 164 169 165 165 167 162 153 152 164 172 167 167 173 176 168 179 189 184 154 172 172 167 143 152 147 140 132 128 139 145 146 174 164 140 122 122 103 162 194 197 193 182 183 172 164 211 215 218 220 222 218 217 236 243 232 186 199 198 176 187 179 179 174 164 167 180 158 147 179
202 251 282 254 295 241 267 247 282 263 78 336 261 79 271 327 292 29 345 54 187 136 145 154 152 154 162 166 169 166 163 160 159 155 161 166 177 172 170 171 175 167 182 189 184 152 159 183 167 153 130 130 131 129 116 128 138 132 126 170 156 101 119 119 124 89 71 173 174 154 157 142 185 234 255 261 242 226 227 209 266 247 232 199 199 192 172 186 183 177 150 123 121 165 153 163 176
291 275 295 309 341 137 8 8 17 299 68 288 231 126 100 341 121 356 333 240 154 134 143 159 159 153 155 159 161 168 172 167 167 181 177 177 164 167 167 176 168 177 197 178 153 158 178 170 157 140 141 136 152 143 116 106 98 125 114 117 121 114 112 127 80 98 62 33 127 131 124 140 186 206 244 258 264 246 203 191 233 246 233 228 200 197 174 168 179 173 161 157 176 165 183 179 179
204 73 347 292 353 56 19 312 9 200 36 289 210 250 127 280 304 320 342 165 139 129 146 159 158 154 157 162 169 173 173 173 186 192 174 171 173 173 169 179 182 181 178 165 150 179 159 148 148 127 150 152 141 126 121 119 99 103 115 109 103 109 113 119 148 171 294 341 307 133 127 150 217 238 253 258 268 255 229 220 206 235 233 234 202 202 179 175 186 191 180 179 186 187 201 177 197
293 349 50 28 297 44 9 19 311 133 343 346 203 287 310 246 351 21 6 207 161 150 153 163 164 163 164 172 176 184 191 197 190 185 174 181 173 176 174 169 189 192 163 161 180 157 135 135 136 136 154 135 133 121 126 120 117 109 113 110 108 115 109 108 125 106 190 209 248 193 122 125 212 234 243 263 270 257 241 235 238 226 355 249 215 206 197 169 191 213 205 210 170 192 206 218 259
14 224 61 21 339 68 337 33 19 51 87 340 42 289 276 341 343 356 27 212 197 157 166 170 173 174 174 180 187 192 194 197 199 200 193 193 185 181 181 182 186 190 187 168 150 131 138 144 150 146 140 121 105 112 108 99 100 109 107 105 112 120 119 110 113 121 140 141 147 107 79 82 103 180 244 260 289 300 269 216 247 356 42 21 300 170 182 189 196 201 213 247 207 238 300 269 286
25 353 108 344 321 18 294 64 73 76 283 43 354 283 303 102 17 23 20 188 202 175 174 175 179 176 180 188 193 196 184 201 210 208 201 197 195 192 185 180 190 191 172 154 156 146 142 149 152 146 144 130 122 112 113 104 96 97 96 99 104 116 118 113 106 109 108 88 76 78 81 83 99 112 119 219 319 280 227 291 359 57 103 177 291 334 148 180 181 189 190 265 290 283 338 315 318
75 343 85 328 21 355 97 321 70 -0 19 358 32 222 248 30 317 358 100 188 190 191 185 186 184 187 192 193 196 197 201 197 207 205 200 192 189 192 189 181 178 165 153 156 158 156 152 153 152 146 126 122 131 132 118 106 97 96 100 107 113 107 98 97 103 102 93 87 81 75 82 96 100 98 110 132 118 95 108 126 113 95 96 141 95 235 234 223 231 243 192 253 14 352 292 295 322
154 131 120 132 191 258 323 295 14 352 42 44 343 235 280 284 296 232 153 133 208 208 202 196 192 192 195 203 205 206 208 211 218 212 178 173 181 187 184 170 166 159 156 160 158 147 143 145 141 137 128 128 127 120 104 94 98 92 93 108 107 107 101 82 87 90 80 81 80 85 83 81 79 77 78 84 88 89 89 100 112 117 127 139 167 180 0 191 203 219 218 197 178 213 248 261 274
250 173 116 136 195 135 280 192 22 358 342 81 121 322 318 312 289 262 144 107 189 201 195 214 215 206 208 212 219 218 220 225 203 170 154 170 188 180 175 160 155 155 154 160 157 154 149 142 145 131 134 136 137 134 136 124 124 122 116 112 106 95 100 95 78 87 92 93 99 92 83 79 72 69 72 75 93 104 104 104 111 136 141 149 134 138 167 178 197 224 227 210 197 242 263 252 235
89 77 139 148 195 245 265 269 44 344 211 159 25 285 267 285 280 275 28 15 163 183 197 197 204 208 207 212 218 224 229 232 153 162 166 170 178 174 164 154 155 153 160 169 163 164 162 160 153 150 146 152 160 158 154 146 138 119 104 108 119 130 111 103 92 87 92 90 92 87 75 72 74 72 66 74 79 85 95 104 119 140 170 147 140 162 150 167 179 195 207 192 203 217 233 197 233
158 149 180 154 226 203 102 54 24 10 266 98 154 277 252 273 298 293 337 155 205 189 194 206 204 212 214 216 220 220 224 182 214 198 168 167 176 171 164 168 167 167 181 179 179 172 166 156 158 145 152 161 166 164 156 152 145 147 137 136 135 139 140 135 120 112 101 95 83 72 64 57 62 72 83 88 83 89 93 90 97 117 137 106 110 113 134 150 160 167 145 171 196 217 237 206 198
107 206 179 217 222 282 296 252 308 358 210 112 154 300 285 286 283 292 251 210 235 192 205 204 197 201 211 217 225 230 221 223 205 215 172 182 173 172 176 176 181 187 172 181 178 160 162 160 157 151 163 161 166 159 162 147 125 81 107 137 142 119 41 26 85 102 111 105 75 69 60 52 58 74 83 85 88 85 83 83 83 94 99 93 95 87 89 104 133 151 139 153 184 146 254 213 194
154 156 189 235 73 282 177 168 296 21 20 343 346 292 286 306 248 270 290 272 306 324 235 265 230 208 206 211 211 212 221 215 215 207 197 178 181 179 182 183 180 178 175 182 180 175 167 168 160 162 163 168 160 163 143 100 92 89 82 97 73 69 114 116 105 112 111 108 90 68 60 48 54 66 71 82 86 77 75 79 83 80 80 75 86 90 80 80 90 113 148 180 156 201 235 212 219
222 212 237 222 189 212 248 340 329 269 120 352 247 238 253 39 106 119 128 319 297 315 330 223 224 247 262 297 282 238 223 211 212 200 192 185 188 195 192 177 167 185 184 186 181 179 172 175 163 163 162 173 168 159 144 131 120 103 101 93 92 95 105 127 132 128 124 111 107 87 64 53 61 65 68 74 82 81 76 76 79 78 72 63 69 77 77 78 85 77 79 146 185 183 190 181 173
187 221 212 212 188 187 241 291 283 343 197 49 2 296 226 356 324 234 6 326 225 229 278 238 248 239 242 236 237 235 242 233 215 205 200 194 197 180 170 175 186 190 189 191 181 177 175 166 150 156 162 177 176 161 150 145 147 141 141 135 147 150 158 173 178 161 162 151 106 101 84 63 71 73 75 82 86 89 81 79 80 83 78 68 62 62 64 61 50 60 60 64 60 47 143 155 137
173 235 190 178 164 122 138 156 229 318 316 53 342 290 286 324 319 112 347 319 301 266 231 75 41 227 213 234 241 234 231 228 225 222 203 194 192 187 189 187 191 191 191 174 174 181 183 164 158 164 170 180 183 162 157 146 146 157 160 164 170 174 177 192 115 111 139 123 119 104 93 81 78 91 84 87 88 88 89 84 81 80 80 76 68 68 61 55 56 46 36 49 49 41 52 113 69
205 74 147 142 143 164 173 137 163 75 5 267 38 357 279 286 293 87 255 269 283 318 359 7 48 258 262 256 245 241 241 237 225 220 213 205 190 189 189 193 186 189 168 168 176 180 182 167 159 166 170 182 187 166 164 160 156 160 158 162 167 181 189 169 163 147 110 130 129 113 104 97 87 91 97 93 95 92 88 85 84 83 82 78 76 71 65 61 65 62 51 47 48 54 54 61 65
347 122 167 140 159 136 137 140 104 32 287 273 123 81 264 232 276 94 327 0 4 353 351 333 332 315 276 260 264 274 271 250 232 226 217 207 197 197 191 187 187 163 170 180 181 175 168 158 163 166 173 182 186 184 166 169 162 163 162 164 177 187 164 112 139 147 152 150 138 123 109 105 98 87 91 97 98 98 93 93 87 85 82 80 80 80 73 66 61 57 52 50 47 49 53 61 68
75 128 96 94 87 71 53 119 116 80 269 265 246 78 273 286 255 358 9 38 335 334 327 319 325 326 323 317 307 280 271 273 257 240 231 216 208 197 186 148 154 171 169 165 157 162 167 162 167 170 181 186 184 193 177 168 168 161 163 172 188 180 175 149 163 156 159 162 151 146 131 127 119 112 100 99 101 100 99 98 95 92 88 84 81 81 79 73 67 64 59 55 53 57 51 49 53
123 183 104 74 54 62 61 53 99 129 225 254 76 359 261 286 322 23 353 18 311 312 308 311 327 332 328 323 317 308 297 276 263 253 244 235 192 151 149 176 171 151 162 169 170 173 168 169 168 178 185 182 186 198 185 172 170 171 176 178 190 191 181 174 162 160 158 164 165 157 154 138 134 125 120 112 108 109 103 101 101 99 97 95 91 86 80 79 75 72 67 63 58 57 54 54 56
159 177 137 112 98 54 87 55 50 228 253 202 6 196 182 247 182 153 250 292 280 272 283 306 316 316 316 319 323 324 313 294 271 247 241 213 176 177 167 170 166 165 164 174 174 169 172 164 171 178 187 187 187 199 196 177 171 176 182 179 189 196 184 186 192 180 175 176 173 163 154 147 145 138 137 129 126 122 116 110 111 110 106 105 99 95 93 89 84 78 71 66 65 61 59 59 52
200 129 136 236 209 44 218 185 220 207 260 64 12 276 193 226 272 329 336 314 310 289 289 302 306 307 314 320 328 328 325 311 278 229 211 207 188 177 180 179 162 167 179 177 175 169 153 173 180 184 193 189 189 192 196 186 178 178 180 185 194 188 195 198 199 194 175 177 172 165 164 167 158 159 156 144 140 137 128 125 121 114 111 110 110 105 102 98 93 87 83 80 73 68 65 63 62
194 200 156 203 233 148 255 201 5 304 243 55 282 13 265 9 286 243 309 338 336 330 321 316 313 311 312 320 331 339 343 338 297 184 178 201 190 179 182 180 177 167 170 170 171 166 181 187 180 188 193 186 187 190 195 190 192 185 180 184 187 184 198 200 205 201 181 181 171 177 180 175 173 174 164 160 152 146 138 130 122 115 115 117 113 111 107 101 98 94 93 90 89 86 83 80 76
200 28 185 213 198 201 232 218 246 262 318 56 74 216 225 212 101 20 34 350 343 343 320 321 316 319 312 311 340 3 2 2 346 52 82 120 160 167 170 167 160 163 163 169 172 184 193 181 178 193 190 189 193 193 190 194 192 189 185 188 186 190 195 197 207 205 186 180 175 182 188 177 179 173 172 156 150 148 140 137 131 126 127 125 121 116 112 106 101 97 94 95 92 90 89 87 82
71 226 50 146 220 129 254 6 274 243 159 174 172 249 332 299 2 315 310 343 344 342 335 316 335 346 326 348 18 16 12 8 14 23 61 71 90 141 144 150 159 157 162 165 176 183 199 184 187 202 196 192 195 191 198 205 204 199 192 186 191 190 196 197 207 202 202 193 178 181 184 185 186 167 156 151 155 150 147 140 134 129 129 128 125 122 118 109 108 104 102 102 100 102 96 93 91
148 162 201 209 32 125 90 106 66 63 20 240 84 261 196 258 230 164 76 339 318 324 330 0 9 1 4 26 12 14 15 14 17 28 28 48 80 105 132 140 150 152 158 168 175 189 184 183 198 194 209 220 210 190 180 187 226 224 213 208 193 192 194 202 206 204 201 192 191 188 184 191 169 161 157 162 153 152 151 144 137 135 134 130 127 123 120 118 116 108 109 110 103 99 93 89 79
113 214 176 115 134 45 159 232 84 116 236 242 124 208 176 176 198 163 192 211 281 7 18 11 19 10 21 12 10 8 12 18 29 32 32 41 51 59 76 130 153 161 160 162 170 180 193 194 186 185 196 213 198 165 184 203 199 200 200 207 212 208 206 203 202 205 196 188 195 191 182 177 189 172 159 158 151 149 148 146 142 141 138 134 130 128 123 120 114 105 108 105 105 109 106 96 80
276 332 129 207 195 206 67 110 193 189 211 239 182 216 253 217 201 151 191 195 175 54 13 29 28 16 8 358 358 4 8 14 31 37 36 32 41 63 63 63 51 97 160 170 173 174 180 188 190 191 199 204 209 201 205 203 198 198 198 197 198 202 207 212 205 195 182 198 200 195 188 185 167 160 159 158 158 154 155 153 147 142 138 132 129 125 123 115 109 106 104 102 101 91 92 97 88
57 131 127 23 263 235 182 205 3 235 250 111 209 172 232 189 190 179 175 193 185 118 84 55 34 28 7 354 353 359 7 8 20 39 47 47 45 53 64 65 59 51 49 46 127 166 188 198 198 206 202 197 199 203 201 211 207 210 215 204 205 201 199 200 199 190 192 200 205 197 187 179 180 172 173 165 165 161 160 156 153 145 139 135 133 128 125 119 111 105 104 97 97 89 84 79 80
138 173 152 135 51 342 11 71 223 231 189 206 197 220 214 173 180 174 177 185 174 176 128 110 63 39 22 2 354 354 10 14 19 28 38 48 53 56 64 68 71 59 53 52 49 63 29 271 240 231 215 207 208 208 201 210 202 219 229 230 225 203 197 195 194 193 200 200 198 194 193 187 163 179 169 168 171 166 163 161 155 150 143 143 142 140 137 131 120 115 105 103 102 81 70 68 55
268 212 206 181 150 176 194 218 107 259 203 199 175 232 187 98 132 193 158 165 152 187 196 122 84 50 4 359 6 359 4 17 22 25 29 32 36 50 61 68 74 72 56 50 47 48 47 38 11 339 288 249 228 216 210 210 207 211 218 227 234 220 217 203 194 192 201 203 194 195 190 175 181 177 173 172 172 161 162 160 156 150 147 148 151 145 145 136 128 122 117 113 103 85 65 66 44